Regional Weather Roundup
Issued by NWS

Home | Current Version | Previous Version | Text Only | Print | Product List | Glossary On
Versions: 1 2 3 4 5 6 7 8 9 10 11 12 13 14 15 16 17 18 19 20 21 22 23 24 25 26 27 28 29 30 31 32 33 34 35 36 37 38 39 40 41 42 43 44 45 46 47 48 49 50
516
ASUS45 KSLC 100210
RWRUT

UTAH REGIONAL WEATHER ROUNDUP
NATIONAL WEATHER SERVICE SALT LAKE CITY UT
700 PM MST TUE FEB 09 2016

UTZ001>011-023>025-100300-

NORTHERN UTAH

CITY           SKY/WX    TMP DP  RH WIND       PRES   REMARKS
BRIGHAM CITY   PTCLDY    29  23  80 NW3       30.51S
HILL AFB       CLEAR     32  22  67 CALM      30.48F
LOGAN          PTCLDY    18  14  84 CALM      30.52S FOG
OGDEN          CLEAR     31  25  78 CALM      30.49S
PROVO AIRPORT  CLEAR     27  19  74 CALM      30.51S HAZE
SALT LAKE CITY CLEAR     34  28  79 CALM      30.50S HAZE
VERNAL         CLOUDY    19  13  77 N3        30.50R
WENDOVER       CLOUDY    34  28  80 SW3       30.52R
HEBER CITY     PTCLDY    18  14  86 CALM      30.47R
WEST JORDAN    CLEAR     30  28  93 CALM      30.51R

$$

UTZ012>022-026-027-100300-

SOUTHERN/CENTRAL UTAH

CITY           SKY/WX    TMP DP  RH WIND       PRES   REMARKS
BLANDING       CLEAR     34  26  74 NW6       30.47R WCI  28
BRYCE CANYON   PTCLDY    24  17  74 W5        30.48R WCI  18
CEDAR CITY     PTCLDY    32  24  72 E5        30.44S WCI  27
DELTA          MOCLDY    21  20  97 CALM      30.50S
HANKSVILLE     CLEAR     34  28  80 CALM      30.48R
MILFORD        PTCLDY    20  17  88 NW6       30.48R WCI  12
MOAB/CYNLANDS  CLEAR     27  22  81 CALM      30.44S
PRICE          CLEAR     30  21  69 NE7       30.45R WCI  23
ST GEORGE      PTCLDY    54  28  37 NE6       30.34R

$$

REGIONAL REPORTS     COLORADO/ARIZONA

CITY           SKY/WX    TMP DP  RH WIND       PRES   REMARKS
CRAIG, CO      CLOUDY     9   6  88 CALM      30.48R
GRAND JUNCTION CLOUDY    29  25  85 E3        30.45R
RIFLE          CLOUDY    28  19  69 SE5       30.47R WCI  23
MONTROSE       CLOUDY    31  24  75 SE7       30.48R WCI  24
CORTEZ         CLOUDY    37  23  56 E5        30.39R WCI  33
PAGE, AZ       CLEAR     45  26  47 CALM      30.40R
GRAND CANYON   CLEAR     36  17  46 CALM      30.43R
KINGMAN        CLEAR     55  23  28 NE10      30.27S
FLAGSTAFF      CLEAR     38  14  37 E3        30.42R

$$

REGIONAL REPORTS    NEVADA/IDAHO/WYOMING

CITY           SKY/WX    TMP DP  RH WIND       PRES   REMARKS
LAS VEGAS, NV  CLEAR     68  26  20 CALM      30.23R
ELY            CLEAR     26  20  77 S14       30.45S WCI  14
ELKO           PTCLDY    24  18  77 E7        30.45S WCI  16
POCATELLO, ID  CLOUDY    25  22  88 NE6       30.48F WCI  18
BURLEY         CLEAR     30  27  88 NE10      30.43S WCI  21
EVANSTON, WY   CLOUDY    33  22  63 CALM      30.47R
ROCK SPRINGS   CLOUDY    36  24  62 SW16      30.41S WCI  26
KEMMERER       CLOUDY    30  23  74 SW5       30.45R WCI  25

$$




USA.gov is the U.S. government's official web portal to all federal, state and local government web resources and services.